Overview Statistics Trail Chart Weather Telemetry Raw packets
 

This is the latest recevied weather packets stored in our database for station/object IW2NTF-3. If no packets are shown the sender has not sent any weather packets the latest 10 day(s).

<< 546 547 548 549 550 551 552 >>
Time Temp. Humidity Pressure Rain* Wind** Luminosity Snow
1787902443 24.44° C 81% 1015.8 hPa 0 mm - 118 W/m² -
1787902391 24.44° C 81% 1015.8 hPa 0 mm - 116 W/m² -
1787902323 24.44° C 81% 1015.5 hPa 0 mm - 120 W/m² -
1787902263 24.44° C 81% 1015.6 hPa 0 mm - 128 W/m² -
1787902203 24.44° C 81% 1015.6 hPa 0 mm - 134 W/m² -
1787902143 24.44° C 81% 1015.7 hPa 0 mm - 135 W/m² -
1787902083 24.44° C 81% 1015.8 hPa 0 mm - 141 W/m² -
1787902023 24.44° C 81% 1015.8 hPa 0 mm - 146 W/m² -
1787901963 24.44° C 81% 1015.9 hPa 0 mm - 149 W/m² -
1787901903 24.44° C 81% 1015.9 hPa 0 mm - 156 W/m² -
1787901843 24.44° C 82% 1015.9 hPa 0 mm - 165 W/m² -
1787901783 23.89° C 81% 1015.9 hPa 0 mm - 179 W/m² -
1787901723 23.89° C 81% 1015.9 hPa 0 mm - 197 W/m² -
1787901663 23.89° C 81% 1015.8 hPa 0 mm - 199 W/m² -
1787901603 23.89° C 81% 1015.8 hPa 0 mm - 220 W/m² -
1787901543 23.89° C 81% 1016 hPa 0 mm - 225 W/m² -
1787901483 23.89° C 81% 1015.9 hPa 0 mm - 227 W/m² -
1787901423 23.89° C 81% 1015.9 hPa 0 mm - 216 W/m² -
1787901363 23.89° C 81% 1015.8 hPa 0 mm - 204 W/m² -
1787901303 23.89° C 82% 1015.8 hPa 0 mm - 193 W/m² -
1787901243 23.89° C 82% 1016 hPa 0 mm - 199 W/m² -
1787901183 23.89° C 82% 1016 hPa 0 mm - 188 W/m² -
1787901123 23.89° C 82% 1016 hPa 0 mm - 176 W/m² -
1787901063 23.89° C 82% 1016 hPa 0 mm - 174 W/m² -
1787901003 23.89° C 81% 1015.8 hPa 0 mm - 172 W/m² -

* Rain latest hour (hover to see other rain measurements)
** Current wind speed in m/s (hover to see current wind gust speed)